Location: Unspecified
(0.0000°N, 0.0000°E)
Time: 18:36:33
(UTC+00:00)

N. Korean satellite - Visible Passes

Search period start: 19 August 2019 00:00
Search period end: 29 August 2019 00:00
Orbit: 457 x 507 km, 97.2° (Epoch: 18 August)

Date Brightness Start Highest point End Pass type
(mag) Time Alt. Az. Time Alt. Az. Time Alt. Az.
21 Aug 7.8 05:20:24 10° NNE 05:23:45 43° E 05:27:03 10° S visible
22 Aug 9.5 04:56:23 10° ENE 04:58:38 16° E 05:00:52 10° SE visible
25 Aug 8.5 05:13:21 10° NE 05:16:28 32° E 05:19:35 10° SSE visible
26 Aug 9.8 04:49:52 10° ENE 04:51:23 12° E 04:52:52 10° SE visible
28 Aug 6.8 05:30:52 10° NNE 05:34:18 71° E 05:37:43 10° S visible
